[[{"header":{"parameterUnit":"m.s-1","parameterCategory":1,"la1":30.2991,"la2":30.254,"lo1":-89.0895,"lo2":-89.0444,"dy":0.0017,"dx":0.0017,"nx":28,"ny":28,"refTime":"2025-03-24T03:00:00:Z","depth":0,"parameterNumber":2,"parameterNumberName":"U-component_of_WINDS"},"data":[0,0,0,0,0,0,0,0,0,0,0,0,0,0,0,0,0,0,0,0,0,0,0,0,0,0,0,0,0,0,0,0,0,0,0,0,0,0,0,0,0,0,0,0,0,0,0,0,0,0,0,0,0,0,0,0,0,0,1.5935,1.5935,0,1.5945,1.5945,1.5945,1.5942,1.5942,1.5942,1.5942,1.5952,1.5952,1.5953,0,0,0,0,0,0,0,0,0,0,0,0,0,1.5914,1.5914,1.5935,1.5935,1.5935,1.5945,1.5945,1.5945,1.5942,1.5942,1.5942,1.5942,1.5952,1.5952,1.5953,0,0,0,0,0,0,0,0,0,0,0,0,0,1.5924,1.5915,1.5935,1.5935,1.5935,1.5945,1.5945,1.5945,1.5942,1.5942,1.5942,1.5941,1.5952,1.5952,1.5953,1.5963,0,0,1.5955,1.5955,0,0,0,0,0,0,0,0,1.5923,1.5924,1.5935,1.5935,1.5935,1.5942,1.5941,1.5951,1.5942,1.594,1.5942,1.5941,1.5949,1.595,1.5952,1.5964,1.5964,1.5955,1.5955,1.5956,1.5956,0,0,0,0,0,0,0,1.5922,1.5924,1.5939,1.5935,1.5935,1.5935,1.5936,1.5943,1.5946,1.594,1.594,1.5941,1.5949,1.5952,1.5953,1.5965,1.5955,1.5956,1.5956,1.5956,1.5986,1.5987,0,0,0,0,0,0,1.5922,1.5923,1.5939,1.5939,1.5928,1.5935,1.5936,1.594,1.5946,1.5946,1.5941,1.5941,1.5951,1.5952,1.5953,1.5966,1.5956,1.5956,1.5957,1.5986,1.5986,1.5987,0,0,0,0,0,0,1.5921,1.5923,1.5938,1.5931,1.5933,1.5936,1.594,1.594,1.5943,1.5947,1.5947,1.5943,1.595,1.5952,1.5961,1.5966,1.5957,1.5957,1.5986,1.5986,1.5987,1.5993,0,0,0,0,0,0,1.592,1.5923,1.5927,1.5931,1.5934,1.5946,1.5941,1.5941,1.5944,1.5944,1.5949,1.595,1.595,1.596,1.5962,1.5967,1.5958,1.5985,1.5986,1.5987,1.5992,1.5993,1.5994,0,0,0,0,0,1.592,1.5928,1.5927,1.5929,1.5938,1.5946,1.5948,1.5948,1.5945,1.5949,1.5951,1.5949,1.5966,1.5961,1.5963,1.5969,1.5985,1.5986,1.5986,1.5991,1.5993,1.5994,0,0,0,0,0,0,1.5923,1.5928,1.5927,1.5937,1.5941,1.5946,1.5951,1.595,1.5955,1.5954,1.5955,1.5956,1.5966,1.5968,1.5963,1.598,1.5975,1.5976,1.5978,1.5979,1.5981,1.598,1.5959,0,0,0,0,0,1.5925,1.5931,1.5935,1.5943,1.5945,1.5948,1.5951,1.5952,1.5956,1.5958,1.5961,1.5965,1.5972,1.5976,1.5982,1.5992,1.5994,1.5997,1.5999,1.6,1.6001,1.6007,1.6009,1.599,1.599,1.599,0,0,1.5929,1.5932,1.5936,1.5944,1.5947,1.5954,1.5949,1.5956,1.5961,1.5959,1.5968,1.597,1.5976,1.5986,1.599,1.5988,1.6007,1.6001,1.6002,1.6002,1.6009,1.601,1.6012,1.599,1.599,1.599,0,0,1.5939,1.5942,1.595,1.5953,1.5959,1.596,1.5962,1.5967,1.5969,1.5978,1.5977,1.5983,1.5993,1.5997,1.6001,1.6014,1.6013,1.6016,1.6022,1.6029,1.603,1.6032,1.6037,1.6039,1.6017,1.6017,1.6017,0,1.5943,1.5953,1.5954,1.5961,1.5965,1.5963,1.5971,1.5975,1.5982,1.5985,1.5982,1.5996,1.5999,1.6011,1.6014,1.6017,1.6019,1.6015,1.603,1.6032,1.6033,1.6038,1.604,1.6017,1.6017,1.6017,1.6017,0,1.5958,1.5965,1.597,1.5977,1.5982,1.5989,1.5991,1.5996,1.5996,1.5998,1.6008,1.6012,1.6019,1.6022,1.6022,1.6034,1.6032,1.603,1.6025,1.6035,1.604,1.6042,1.6018,1.6018,1.6018,1.6018,0,0,1.597,1.5978,1.598,1.5984,1.599,1.5995,1.6003,1.601,1.6014,1.602,1.6026,1.6036,1.6034,1.6038,1.6038,1.6044,1.6055,1.6041,1.6041,1.6044,1.6069,1.6071,1.6073,1.6054,1.6055,1.6055,1.6069,0,1.5981,1.5995,1.5996,1.6008,1.6015,1.6014,1.6021,1.6026,1.6029,1.6035,1.6038,1.6045,1.6041,1.6044,1.6049,1.6053,1.606,1.6052,1.6061,1.6061,1.606,1.6076,1.6077,1.609,1.6071,1.6071,1.6071,0,1.5996,1.6002,1.6015,1.6021,1.6024,1.603,1.6037,1.6043,1.6049,1.605,1.6055,1.6055,1.6064,1.6059,1.6071,1.6065,1.6069,1.6071,1.6072,1.6073,1.6067,1.6077,1.6094,1.6096,1.6074,1.6074,1.6074,0,1.6004,1.6015,1.6024,1.6027,1.6035,1.6039,1.6043,1.6048,1.6053,1.6059,1.6062,1.6069,1.6073,1.6079,1.6081,1.6077,1.6094,1.6089,1.6096,1.6096,1.6099,1.6099,1.6117,1.6101,1.6101,1.6101,1.6101,0,1.6016,1.6024,1.6028,1.6034,1.6043,1.6045,1.6055,1.6058,1.6063,1.607,1.607,1.6076,1.6079,1.6086,1.6088,1.6098,1.6099,1.6101,1.6102,1.6101,1.6101,1.6104,1.6103,1.6102,1.6102,1.6102,1.6101,0,1.6026,1.6029,1.604,1.6046,1.6048,1.6055,1.606,1.6066,1.6069,1.6078,1.608,1.6084,1.6092,1.6096,1.6105,1.6107,1.6119,1.6118,1.6117,1.6117,1.6124,1.6123,1.6145,1.6148,1.613,1.613,1.613,0,1.6034,1.604,1.6048,1.6052,1.6056,1.6063,1.6068,1.607,1.6075,1.6083,1.6088,1.6097,1.6103,1.6117,1.6121,1.6129,1.6129,1.6136,1.613,1.613,1.6129,1.6129,1.613,1.6137,1.6137,1.6137,1.6137,0,1.6047,1.6049,1.6056,1.6063,1.6069,1.6075,1.6081,1.6085,1.6089,1.6094,1.6103,1.6108,1.6119,1.6127,1.6136,1.6139,1.6139,1.6139,1.6141,1.6141,1.614,1.6141,1.612,1.6139,1.6139,1.6139,1.6138,1.6138,1.6057,1.6063,1.6069,1.6077,1.6082,1.6088,1.6094,1.6098,1.6105,1.6114,1.6115,1.6124,1.6131,1.6142,1.6146,1.6154,1.6152,1.6155,1.6156,1.6157,1.6157,1.6139,1.6156,1.6156,1.6155,1.6155,1.6155,0,1.6071,1.6075,1.6082,1.6091,1.6097,1.6097,1.6103,1.6109,1.6117,1.6123,1.613,1.6141,1.6149,1.6154,1.6163,1.6168,1.6169,1.6171,1.617,1.6171,1.6158,1.6156,1.617,1.617,1.617,1.617,1.617,1.617,1.6078,1.6089,1.6091,1.6104,1.6108,1.6117,1.6121,1.6127,1.6132,1.6144,1.6151,1.6154,1.616,1.617,1.6178,1.6179,1.6182,1.6185,1.6186,1.6174,1.6172,1.6171,1.6168,1.6185,1.6185,1.6198,1.6199,1.6199]},{"header":{"parameterUnit":"m.s-1","parameterCategory":1,"la1":30.2991,"la2":30.254,"lo1":-89.0895,"lo2":-89.0444,"dy":0.0017,"dx":0.0017,"nx":28,"ny":28,"refTime":"2025-03-24T03:00:00:Z","depth":0,"parameterNumber":3,"parameterNumberName":"V-component_of_WINDS"},"data":[0,0,0,0,0,0,0,0,0,0,0,0,0,0,0,0,0,0,0,0,0,0,0,0,0,0,0,0,0,0,0,0,0,0,0,0,0,0,0,0,0,0,0,0,0,0,0,0,0,0,0,0,0,0,0,0,0,0,-1.6271,-1.6272,0,-1.6345,-1.6346,-1.6347,-1.6375,-1.6374,-1.6374,-1.6374,-1.6447,-1.6449,-1.6451,0,0,0,0,0,0,0,0,0,0,0,0,0,-1.6151,-1.6153,-1.6271,-1.6272,-1.6273,-1.6345,-1.6346,-1.6347,-1.6375,-1.6374,-1.6374,-1.6374,-1.6446,-1.6448,-1.6451,0,0,0,0,0,0,0,0,0,0,0,0,0,-1.6212,-1.6153,-1.6271,-1.6295,-1.6298,-1.6345,-1.6346,-1.6347,-1.6375,-1.6374,-1.6374,-1.6374,-1.6445,-1.6448,-1.6451,-1.6478,0,0,-1.6461,-1.6462,0,0,0,0,0,0,0,0,-1.6208,-1.6216,-1.6291,-1.6294,-1.6297,-1.635,-1.633,-1.6391,-1.6375,-1.6346,-1.6374,-1.6374,-1.6415,-1.642,-1.6435,-1.6481,-1.6484,-1.6461,-1.6463,-1.6465,-1.6466,0,0,0,0,0,0,0,-1.6204,-1.6213,-1.63,-1.6292,-1.6296,-1.6302,-1.631,-1.6342,-1.6381,-1.6348,-1.635,-1.6359,-1.6416,-1.6432,-1.6437,-1.6485,-1.6461,-1.6464,-1.6466,-1.6467,-1.6558,-1.6558,0,0,0,0,0,0,-1.6196,-1.6209,-1.6298,-1.6302,-1.6251,-1.6304,-1.6314,-1.6333,-1.6381,-1.6388,-1.6359,-1.636,-1.6426,-1.6433,-1.6439,-1.6474,-1.6465,-1.6468,-1.6469,-1.6557,-1.6558,-1.6559,0,0,0,0,0,0,-1.6193,-1.6204,-1.6295,-1.6256,-1.6269,-1.6307,-1.6329,-1.6335,-1.6351,-1.6389,-1.6396,-1.6368,-1.6426,-1.6435,-1.6468,-1.6477,-1.6469,-1.6472,-1.6557,-1.6558,-1.6558,-1.6543,0,0,0,0,0,0,-1.619,-1.6202,-1.6213,-1.6257,-1.627,-1.6323,-1.6329,-1.6337,-1.6356,-1.6358,-1.6399,-1.6405,-1.6427,-1.6464,-1.6472,-1.6481,-1.6475,-1.6556,-1.6557,-1.6558,-1.6543,-1.6544,-1.6544,0,0,0,0,0,-1.6185,-1.6205,-1.6214,-1.6224,-1.6285,-1.6324,-1.6332,-1.6357,-1.6357,-1.6368,-1.6393,-1.6404,-1.6475,-1.6467,-1.6476,-1.6487,-1.6556,-1.6557,-1.6558,-1.6543,-1.6544,-1.6544,0,0,0,0,0,0,-1.616,-1.6211,-1.6221,-1.6256,-1.6286,-1.6328,-1.6343,-1.6356,-1.6385,-1.6385,-1.6414,-1.6423,-1.6455,-1.6474,-1.6464,-1.6515,-1.6516,-1.6519,-1.6502,-1.6502,-1.6502,-1.6497,-1.6477,0,0,0,0,0,-1.6159,-1.6187,-1.623,-1.6256,-1.6271,-1.6304,-1.6322,-1.6339,-1.637,-1.6382,-1.641,-1.6439,-1.6468,-1.6486,-1.6515,-1.6546,-1.6556,-1.6558,-1.6559,-1.6559,-1.6561,-1.658,-1.6582,-1.6562,-1.6562,-1.6562,0,0,-1.6157,-1.6188,-1.6203,-1.6252,-1.6277,-1.6305,-1.6314,-1.6343,-1.6364,-1.6386,-1.642,-1.6441,-1.6476,-1.6509,-1.6525,-1.6526,-1.6568,-1.656,-1.656,-1.6562,-1.6581,-1.6583,-1.6584,-1.6563,-1.6563,-1.6563,0,0,-1.6166,-1.6193,-1.6218,-1.6243,-1.6281,-1.6304,-1.631,-1.6351,-1.6367,-1.6401,-1.6419,-1.6444,-1.6493,-1.6517,-1.6535,-1.6556,-1.6567,-1.6564,-1.6565,-1.6583,-1.6585,-1.6586,-1.6594,-1.6596,-1.6566,-1.6566,-1.6566,0,-1.6158,-1.6201,-1.6229,-1.6258,-1.6279,-1.6302,-1.6328,-1.635,-1.6395,-1.6409,-1.641,-1.6473,-1.6497,-1.6537,-1.6542,-1.6556,-1.6564,-1.6559,-1.6582,-1.6584,-1.6586,-1.6593,-1.6596,-1.6565,-1.6565,-1.6565,-1.6566,0,-1.619,-1.6219,-1.6235,-1.628,-1.6303,-1.6329,-1.6361,-1.638,-1.6395,-1.6417,-1.6453,-1.6483,-1.6519,-1.653,-1.6544,-1.6571,-1.6571,-1.6577,-1.6578,-1.6587,-1.6594,-1.6597,-1.6565,-1.6565,-1.6565,-1.6565,0,0,-1.6185,-1.6246,-1.6251,-1.6272,-1.6316,-1.634,-1.6367,-1.6404,-1.642,-1.645,-1.6474,-1.6516,-1.6522,-1.6543,-1.6561,-1.6577,-1.6591,-1.6581,-1.6582,-1.6582,-1.6624,-1.6619,-1.6622,-1.6599,-1.66,-1.66,-1.6621,0,-1.6201,-1.6253,-1.6279,-1.632,-1.6348,-1.6371,-1.6395,-1.6425,-1.6446,-1.6473,-1.6496,-1.6525,-1.6531,-1.6544,-1.6561,-1.6586,-1.66,-1.6585,-1.6621,-1.6622,-1.6612,-1.6626,-1.6621,-1.6639,-1.6624,-1.6625,-1.6625,0,-1.6226,-1.6258,-1.6302,-1.6344,-1.6357,-1.6378,-1.6414,-1.6439,-1.6473,-1.6488,-1.6512,-1.6529,-1.6559,-1.6558,-1.66,-1.6589,-1.6606,-1.662,-1.6621,-1.6626,-1.6624,-1.6631,-1.6646,-1.6648,-1.663,-1.6629,-1.6629,0,-1.6219,-1.6272,-1.6306,-1.6323,-1.6373,-1.6388,-1.6409,-1.6443,-1.6463,-1.6494,-1.6508,-1.6541,-1.6559,-1.6585,-1.661,-1.6608,-1.665,-1.6651,-1.6662,-1.6662,-1.667,-1.6669,-1.6688,-1.668,-1.668,-1.668,-1.668,0,-1.6234,-1.626,-1.6304,-1.6324,-1.6354,-1.6384,-1.6412,-1.6435,-1.6465,-1.649,-1.6511,-1.6534,-1.6567,-1.6594,-1.6614,-1.6645,-1.6653,-1.6666,-1.6671,-1.6664,-1.6662,-1.6675,-1.6675,-1.6681,-1.6681,-1.6681,-1.668,0,-1.6231,-1.6261,-1.63,-1.6344,-1.6356,-1.6376,-1.6414,-1.6434,-1.6457,-1.6489,-1.6498,-1.6534,-1.6567,-1.6595,-1.6638,-1.6651,-1.6684,-1.669,-1.6673,-1.6676,-1.6686,-1.6684,-1.6713,-1.6718,-1.6707,-1.6707,-1.6707,0,-1.6238,-1.6259,-1.6307,-1.6326,-1.6347,-1.6377,-1.6399,-1.6429,-1.645,-1.6491,-1.6506,-1.6541,-1.657,-1.6622,-1.6651,-1.6684,-1.6691,-1.6699,-1.6696,-1.6689,-1.6691,-1.669,-1.6692,-1.6699,-1.6699,-1.6699,-1.6699,0,-1.6249,-1.6263,-1.6294,-1.6331,-1.6356,-1.6386,-1.6416,-1.643,-1.6466,-1.6489,-1.6523,-1.6546,-1.6591,-1.6625,-1.6661,-1.6682,-1.6696,-1.6699,-1.6704,-1.6697,-1.6687,-1.6693,-1.6673,-1.6698,-1.6698,-1.6698,-1.6698,-1.6698,-1.6252,-1.6272,-1.6309,-1.6343,-1.6369,-1.6397,-1.6419,-1.6445,-1.6475,-1.6515,-1.653,-1.6566,-1.66,-1.665,-1.6671,-1.6699,-1.6701,-1.6707,-1.6709,-1.671,-1.6709,-1.6682,-1.6706,-1.6706,-1.6706,-1.6706,-1.6706,0,-1.6264,-1.6289,-1.632,-1.6363,-1.6389,-1.6402,-1.6436,-1.6457,-1.6488,-1.6519,-1.6548,-1.6588,-1.6622,-1.6654,-1.6689,-1.6705,-1.6712,-1.6713,-1.6712,-1.6717,-1.6705,-1.6698,-1.6707,-1.6707,-1.6707,-1.6707,-1.6707,-1.6707,-1.6273,-1.6308,-1.6327,-1.6375,-1.64,-1.6436,-1.6454,-1.648,-1.6506,-1.655,-1.6578,-1.66,-1.6631,-1.6669,-1.67,-1.6709,-1.672,-1.672,-1.673,-1.6718,-1.6718,-1.6717,-1.6711,-1.6722,-1.6722,-1.674,-1.674,-1.674]}]]